Regional Weather Roundup
Issued by NWS

Home | Current Version | Previous Version | Graphics & Text | Print | Product List | Glossary On
Versions: 1 2 3 4 5 6 7 8 9 10 11 12 13 14 15 16 17 18 19 20 21 22 23 24 25 26 27 28 29 30 31 32 33 34 35 36 37 38 39 40 41 42 43 44 45 46 47 48 49 50
000
ASUS43 KDMX 261703
RWRIA

WEATHER ROUNDUP FOR IOWA
NATIONAL WEATHER SERVICE DES MOINES IA
1200 PM CDT MON SEP 26 2016

NOTE: "FAIR" INDICATES FEW OR NO CLOUDS BELOW 12,000 FEET WITH NO
SIGNIFICANT WEATHER AND/OR OBSTRUCTIONS TO VISIBILITY.

* - THESE STATIONS ARE NOT NWS STATIONS...THUS NOT UNDER NWS
QUALITY CONTROL.  THEY ALSO DO NOT REPORT WEATHER SUCH
AS PRECIPITATION OR FOG.

IAZ001>003-012>014-020>022-031>034-043>046-261800-
   NORTHWEST IOWA

CITY           SKY/WX    TMP DP  RH WIND       PRES   REMARKS
CARROLL *      SUNNY     66  37  34 W21       30.16F
CHEROKEE *     SUNNY     64  39  40 W16       30.15F
DENISON *      SUNNY     68  39  34 W18       30.16F
LE MARS *      SUNNY     66  41  39 W17G23    30.17F
ORANGE CITY *  SUNNY     64  39  39 W14G21    30.15F
SHELDON *      SUNNY     64  37  36 W15G25    30.13F
SIOUX CITY     SUNNY     69  43  38 NW14      30.17F
SPENCER        SUNNY     65  36  34 NW25G35   30.12F
STORM LAKE *   SUNNY     64  36  34 W17G25    30.15F
$$

IAZ055>058-069>071-079>083-090>094-261800-
   SOUTHWEST IOWA

CITY           SKY/WX    TMP DP  RH WIND       PRES   REMARKS
ATLANTIC *     SUNNY     66  39  37 W20G29    30.19F
AUDUBON *      SUNNY     66  37  34 NW12G18   30.19F
CLARINDA *       N/A     70  41  35 MISG      30.23F
COUNCIL BLFS * SUNNY     68  41  37 W13G18    30.21F
CRESTON *      SUNNY     66  39  37 NW18G29   30.21F
HARLAN  *      SUNNY     66  41  39 W16G22    30.23F
LAMONI         SUNNY     68  40  35 W16G26    30.20F
RED OAK *      SUNNY     70  39  32 W15G22    30.22F
SHENANDOAH *   SUNNY     68  41  37 W10G21    30.23F
$$

IAZ047>049-059>061-072>074-084-261800-
   CENTRAL IOWA

CITY           SKY/WX    TMP DP  RH WIND       PRES   REMARKS
AMES           SUNNY     66  39  37 NW24G31   30.13F
ANKENY *         N/A    N/A N/A N/A MISG        N/A
BOONE *        SUNNY     64  39  39 NW18G26   30.13F
CHARITON *       N/A     66  39  37 NW15G22   30.17F
DES MOINES     MOSUNNY   69  39  33 NW14      30.14F
GRINNELL*      SUNNY     66  35  31 W21G29    30.13F
KNOXVILLE *    SUNNY     66  34  30 W25G31    30.14F
MARSHALLTOWN   SUNNY     64  37  36 W25G35    30.10F
NEWTON *       SUNNY     66  36  32 W17G28    30.13F
PELLA *        SUNNY     67  36  32 W13G29    30.15F
PERRY *          N/A     69  35  28 W18G24    30.16F
$$

IAZ004>006-015-016-023>025-035-036-261800-
   NORTH CENTRAL IOWA

CITY           SKY/WX    TMP DP  RH WIND       PRES   REMARKS
ALGONA *       SUNNY     64  36  34 W18G28    30.09F
CLARION *      SUNNY     64  34  32 W22G29    30.10F
ESTHERVILLE    SUNNY     62  36  37 W20G33    30.08F
FORT DODGE *   SUNNY     64  43  45 W10G18    30.12F
MASON CITY     SUNNY     63  34  33 W26G36    30.07F
FOREST CITY *    N/A     64  32  29 NW25G32   30.06F
WEBSTER CITY * SUNNY     64  36  34 W23G31    30.10F
IOWA FALLS *     N/A     65  33  30 W20G33    30.11F
$$

IAZ007>011-017>019-026>030-037>042-050>054-066-261800-
   NORTHEAST IOWA

CITY           SKY/WX    TMP DP  RH WIND       PRES   REMARKS
CEDAR RAPIDS   SUNNY     66  38  35 W23G35    30.07F
CHARLES CITY * SUNNY     64  30  27 NW21G29   30.04F
CLINTON *      SUNNY     66  37  34 W20G32    30.04F
DECORAH *      SUNNY     63  34  34 NW17G32   29.98F
DUBUQUE        SUNNY     63  36  36 W18G33    30.02F
MONTICELLO *   SUNNY     66  34  30 NW23G31   30.03F
OELWEIN *      SUNNY     64  36  34 W23G37    30.04F
WATERLOO       SUNNY     65  34  31 W22G32    30.05F
$$

IAZ064-065-067-068-078-261800-
   EAST CENTRAL IOWA

CITY           SKY/WX    TMP DP  RH WIND       PRES   REMARKS
DAVENPORT      SUNNY     68  33  27 W17G28    30.06F
IOWA CITY      SUNNY     67  36  31 NW21G29   30.10F
MT. PLEASANT * SUNNY     70  33  25 W15G26    30.13F
MUSCATINE *    SUNNY     70  32  24 NW23      30.09F
QUAD CITIES    SUNNY     68  34  28 W20G30    30.06F
$$

IAZ062-063-075>077-085>089-095>099-261800-
   SOUTHEAST IOWA

CITY           SKY/WX    TMP DP  RH WIND       PRES   REMARKS
BURLINGTON     SUNNY     67  36  31 W14G26    30.12F
FAIRFIELD *    SUNNY     68  34  28 W17G24    30.13F
FORT MADISON * SUNNY     70  36  28 W13G25    30.14F
KEOKUK *       SUNNY     68  34  28 W18       30.14F
OSKALOOSA *      N/A     67  33  27 W24G30    30.14F
OTTUMWA        LGT RAIN  68  33  27 NW20G36   30.14F
WASHINGTON *     N/A    N/A N/A N/A MISG        N/A
$$

ABBREVIATIONS USED IN REMARKS
   TC - TEMPERATURES IN CELSIUS
  WCI - WIND CHILL INDEX
   HX - HEAT INDEX
  VSB - VISIBILITY
$$





USA.gov is the U.S. government's official web portal to all federal, state and local government web resources and services.